SCP
0 0 0 0 0 0 0 0 0 0 0 0 0 0 0 0 0 0 0 0 0 0 0 0 0 0 0 0 0 0 0 0 0 0 0 0 0 0
0 0 0 0 0 0 0 0 0 0 0 0 0 0 0 0 0 0 0 0 0 0 0 0 0 0 0 0 0 0 0 0 0 0 0 0 0 0
0 0 0 0 0 0 0 0 0 0 0 0 0 0 0 0 0 0 0 0 0 0 0 0 0 0 0 0 0 0 0 0 0 0 0 0 0 0
0 0 0 0 0 0 0 0 0 0 0 0 0 0 0 0 0 0 0 0 0 0 0 0 0 0 0 0 0 0 0 0 0 0 0 0 0 0
0 0 0 0 0 0 0 0 0 0 0 0 0 0 0 0 0 0 0 0 0 0 0 0 0 0 0 0 0 0 0 0 0 0 0 0 0 0
0 0 0 0 0 0 0 0 0 0 0 0 0 0 0 0 0 0 0 0 0 0 0 0 0 0 0 0 0 0 0 0 0 0 0 0 0 0
0 0 0 0 0 0 0 0 0 0 0 0 0 0 0 0 0 0 0 0 0 0 0 0 0 0 0 0 0 0 0 0 0 0 0 0 0 0
0 0 0 0 0 0 0 0 0 0 0 0 0 0 0 0 0 0 0 0 0 0 0 0 0 0 0 0 0 0 0 0 0 0 0 0 0 0
0 0 0 0 0 0 0 0 0 0 0 0 0 0 0 0 0 0 0 0 0 0 0 0 0 0 0 0 0 0 0 0 0 0 0 0 0 0
0 0 0 0 0 0 0 0 0 0 0 0 0 0 0 0 0 0 0 0 0 0 0 0 0 0 0 0 0 0 0 0 0 0 0 0 0 0
0 0 0 0 0 0 0 0 0 0 0 0 0 0 0 0 0 0 0 0 0 0 0 0 0 0 0 0 0 0 0 0 0 0 0 0 0 0
0 0 0 0 0 0 0 0 0 0 0 0 0 0 0 0 0 0 0 0 0 0 0 0 0 0 0 0 0 0 0 0 0 0 0 0 0 0
0 0 0 0 0 0 0 0 0 0 0 0 0 0 0 0 0 0 0 0 0 0 0 0 0 0 0 0 0 0 0 0 0 0 0 0 0 0
0 0 0 0 0 0 0 0 0 0 0 0 0 0 0 0 0 0 0 0 0 0 0 0 0 0 0 0 0 0 0 0 0 0 0 0 0 0
0 0 0 0 0 0 0 0 0 0 0 0 0 0 0 0 0 0 0 0 0 0 0 0 0 0 0 0 0 0 0 0 0 0 0 0 0 0
0 0 0 0 0 0 0 0 0 0 0 0 0 0 0 0 0 0 0 0 0 0 0 0 0 0 0 0 0 0 0 0 0 0 0 0 0 0
0 0 0 0 0 0 0 0 0 0 0 0 0 0 0 0 0 0 0 0 0 0 0 0 0 0 0 0 0 0 0 0 0 0 0 0 0 0
0 0 0 0 0 0 0 0 0 0 0 0 0 0 0 0 0 0 0 0 0 0 0 0 0 0 0 0 0 0 0 0 0 0 0 0 0 0
0 0 0 0 0 0 0 0 0 0 0 0 0 0 0 0 0 0 0 0 0 0 0 0 0 0 0 0 0 0 0 0 0 0 0 0 0 0
0 0 0 0 0 0 0 0 0 0 0 0 0 0 0 0 0 0 0 0 0 0 0 0 0 0 0 0 0 0 0 0 0 0 0 0 0 0
0 0 0 0 0 0 0 0 0 0 0 0 0 0 0 0 0 0 0 0 0 0 0 0 0 0 0 0 0 0 0 0 0 0 0 0 0 0
0 0 0 0 0 0 0 0 0 0 0 0 0 0 0 0 0 0 0 0 0 0 0 0 0 0 0 0 0 0 0 0 0 0 0 0 0 0
0 0 0 0 0 0 0 0 0 0 0 0 0 0 0 0 0 0 0 0 0 0 0 0 0 0 0 0 0 0 0 0 0 0 0 0 0 0
Wind_Speed
6 6 5 3 3 3 3 2 2 1 3 3 3 4 4 4 7 5 5 13 17 16 16 17 19 20 21 21 21 22 22 23 24 24 24 24 24 24
5 6 5 3 3 3 3 2 2 3 2 3 3 4 6 8 12 8 8 18 17 18 18 17 17 19 20 21 21 22 23 24 24 24 24 24 23 23
5 5 4 3 3 2 2 2 1 1 2 4 3 4 5 7 9 8 8 7 8 17 20 19 18 18 20 21 21 22 22 23 24 24 24 24 23 22
4 4 3 2 2 2 1 2 2 1 1 4 4 4 6 8 8 8 9 9 7 16 19 20 20 19 18 18 19 19 20 21 23 23 24 23 22 21
3 3 2 2 2 1 2 2 2 3 2 3 6 5 5 6 7 8 9 8 9 12 15 17 18 18 17 17 18 18 17 18 19 21 21 21 21 21
4 3 2 2 2 2 2 3 3 4 4 4 6 6 6 6 5 6 8 6 8 10 12 12 14 17 18 18 18 19 17 16 17 17 17 17 18 18
5 4 4 6 3 2 2 3 3 3 4 5 6 7 7 6 6 5 8 8 8 6 5 6 7 7 9 14 16 17 17 16 16 15 15 14 14 15
5 5 6 5 5 5 6 7 8 6 6 5 6 8 9 8 7 7 7 7 6 3 4 8 6 7 7 6 13 16 16 15 14 13 12 11 12 13
5 5 5 4 4 3 6 10 11 14 12 7 8 10 9 9 8 8 7 7 8 7 6 7 6 7 7 8 14 15 14 14 13 11 11 10 10 11
5 5 5 5 4 4 5 7 8 9 10 7 7 9 9 8 7 6 6 7 7 7 5 5 4 5 7 7 11 12 13 14 13 11 10 9 9 10
6 6 6 5 8 8 6 8 11 11 11 11 11 12 14 13 8 4 5 6 7 6 3 3 4 5 6 5 7 12 13 13 13 12 10 9 9 8
6 7 9 9 10 11 7 7 10 10 9 11 10 9 7 7 8 4 4 6 6 5 3 3 4 4 4 3 4 6 7 9 12 11 10 8 7 4
5 5 6 12 14 15 12 7 11 11 9 7 6 6 5 4 5 5 4 4 5 5 4 4 4 3 4 4 4 5 5 5 5 5 7 7 6 5
4 5 7 14 16 16 11 10 13 11 4 4 4 4 4 4 5 6 6 5 5 6 7 6 4 4 4 4 5 5 6 5 4 4 4 4 4 5
5 11 14 15 14 10 10 13 10 4 3 3 3 3 3 4 5 5 5 5 6 6 5 4 4 4 4 4 6 5 5 4 4 4 3 2 1 1
6 10 14 12 9 8 8 7 4 3 2 2 3 3 4 4 3 3 3 4 4 5 6 6 5 4 3 5 6 6 5 5 5 5 4 2 1 0
6 4 4 5 7 7 7 6 5 4 3 2 2 3 3 3 4 3 3 3 3 4 6 6 6 5 3 3 5 6 6 5 5 5 3 3 3 2
4 3 5 5 6 6 6 6 5 4 3 3 3 3 3 4 4 4 3 3 3 4 4 5 5 5 4 1 4 7 6 5 5 6 4 4 4 4
3 4 5 6 6 6 5 4 4 4 3 3 4 4 4 4 4 4 4 3 3 3 4 3 4 5 7 7 6 9 8 5 5 5 5 5 4 5
3 5 5 6 6 6 5 4 4 4 4 4 4 4 4 4 4 4 4 4 3 3 4 3 3 4 5 6 6 6 11 8 5 5 5 4 4 5
5 5 5 5 6 5 5 4 4 4 4 4 5 5 5 4 4 4 4 5 3 3 4 4 3 4 3 3 4 6 7 10 10 6 4 3 4 4
5 5 6 5 5 5 4 4 4 5 5 5 5 6 5 4 4 5 4 3 2 2 3 3 3 3 3 4 5 6 7 7 8 13 14 10 3 3
5 5 5 5 5 4 5 5 6 5 5 5 6 6 6 5 5 4 4 3 2 2 2 3 3 3 2 3 3 4 6 7 6 7 8 13 14 12
Wind_Direction
68 67 66 52 56 67 80 105 119 330 294 301 320 328 331 316 311 307 297 303 307 301 295 290 288 288 289 288 285 284 282 280 278 276 275 275 275 273
68 66 60 50 47 48 63 76 116 159 247 277 276 293 311 321 319 313 299 309 308 304 299 294 290 290 291 289 287 286 284 281 278 276 273 272 272 272
59 67 62 64 49 36 44 44 41 128 256 277 268 287 299 304 309 302 298 290 291 300 299 295 289 289 291 291 291 289 287 284 281 277 274 271 270 270
52 56 41 44 35 25 24 359 324 294 264 295 296 298 296 296 291 294 297 299 292 296 295 293 292 291 292 292 291 289 286 282 279 276 272 269 266 265
32 38 19 23 347 315 313 308 295 302 286 285 294 289 289 292 296 294 292 291 294 298 296 294 295 296 295 293 291 288 284 279 276 273 269 265 262 261
2 355 343 321 291 280 284 289 290 299 295 291 292 294 290 289 288 294 301 294 295 298 293 293 295 297 295 295 294 293 289 282 278 273 265 259 255 253
345 339 325 327 324 285 286 288 293 290 291 291 294 299 301 303 301 291 300 301 293 279 282 289 290 286 289 293 296 294 292 288 284 277 267 254 245 241
329 323 317 321 329 331 329 324 316 303 294 286 292 296 297 294 294 296 301 309 305 282 285 293 287 284 285 280 288 294 298 297 292 286 275 260 247 239
325 320 320 318 321 311 315 317 312 305 294 280 280 284 290 295 298 300 300 302 297 293 293 291 288 287 288 295 301 301 303 305 301 291 280 266 254 244
336 327 317 309 298 294 301 305 301 297 291 283 262 273 283 288 285 283 286 292 286 286 279 279 285 286 297 296 297 298 305 311 306 296 285 268 256 247
332 333 330 316 300 305 304 302 304 302 300 285 278 283 287 290 287 290 303 308 310 305 281 266 279 288 290 286 291 301 307 310 309 303 290 272 256 245
323 322 324 316 310 310 298 288 293 296 304 311 311 312 307 305 306 285 280 298 305 298 289 284 276 293 292 279 283 297 304 305 308 304 296 280 258 231
311 311 308 310 311 309 303 273 269 282 294 297 304 309 314 312 307 298 276 269 292 292 288 295 285 283 282 296 292 293 299 301 304 300 299 287 256 218
294 295 300 308 311 310 307 295 299 301 295 308 314 313 312 307 303 304 298 289 271 273 286 296 289 300 304 296 296 303 307 305 303 299 303 297 264 230
294 305 310 311 313 312 311 316 320 319 321 323 315 300 289 290 301 310 312 312 309 302 301 297 295 293 298 303 310 304 305 306 317 315 310 300 266 200
316 314 313 310 314 311 315 324 326 317 309 293 290 293 304 316 313 307 308 317 326 320 317 321 322 312 300 308 312 316 318 315 320 326 326 329 348 139
308 312 322 331 340 340 336 331 329 337 334 317 307 308 311 315 307 305 308 315 326 324 330 331 328 322 288 300 324 332 331 328 333 341 351 12 34 40
322 325 326 330 328 324 325 324 321 320 308 300 298 294 296 300 302 305 308 314 316 316 321 326 335 338 335 316 353 346 344 341 347 1 12 24 34 30
355 328 324 322 321 321 319 312 302 303 299 302 298 295 295 295 298 301 307 311 308 307 307 317 338 348 359 4 354 6 2 354 0 14 21 29 35 31
330 319 318 319 320 321 319 317 316 323 325 316 307 302 299 293 295 297 298 296 299 307 319 327 336 348 356 350 342 352 9 13 9 13 15 25 39 47
322 320 319 320 321 321 321 323 330 333 333 329 323 317 310 304 300 298 299 302 301 309 319 319 313 326 331 345 6 13 14 25 37 29 2 14 21 25
321 325 327 330 330 331 335 341 345 344 343 340 331 329 324 317 311 313 313 310 299 294 303 311 328 359 9 20 18 11 13 15 30 43 44 43 39 35
326 329 332 338 342 345 347 348 349 341 338 335 332 330 331 331 328 332 334 331 332 337 340 346 355 9 10 15 14 11 14 17 21 33 41 39 55 66